Weather History for KARB - March, 2014

Change the Weather History Date:

Tuesday, March 25, 2014

  Actual Average Record
Temperature  
Mean Temperature 22 °F -  
Max Temperature 34 °F 46 °F 72 °F (2012)
Min Temperature 15 °F 26 °F 12 °F (2001)
Degree Days  
Heating Degree Days 42    
Moisture  
Dew Point 12 °F    
Average Humidity 67    
Maximum Humidity 84    
Minimum Humidity 37    
Precipitation  
Precipitation 0.00 in - - ()
Sea Level Pressure  
Sea Level Pressure 30.03 in    
Wind  
Wind Speed 8 mph (WNW)    
Max Wind Speed 18 mph    
Max Gust Speed 31 mph    
Visibility 8 miles    
Events Snow    
Averages and records for this station are not official NWS values.
T = Trace of Precipitation, MM = Missing Value Source: NWS Daily Summary

Daily Weather History Graph

Daily Weather History Graph

Search for Another Location

Airport or City:

Trip Planner

Search our weather history database for the weather conditions in past years. The results will help you decide how hot, cold, wet, or windy it might be!

Date:

Astronomy

Mar. 25, 2014 Rise Set
Actual Time 7:29 AM EDT 7:52 PM EDT
Civil Twilight 7:01 AM EDT 8:20 PM EDT
Nautical Twilight 6:28 AM EDT 8:54 PM EDT
Astronomical Twilight 5:54 AM EDT 9:28 PM EDT
Moon 3:56 AM EDT (3/25) 2:17 PM EDT (3/25)
Length of Visible Light 13h 19m
Length of Day
12h 23m
Waning Crescent, 32% of the Moon is Illuminated
Mar 25
Waning Crescent
Mar 30
New
Apr 7
First Quarter
Apr 15
Full
Apr 22
Last Quarter

Hourly Weather History & Observations

Time (EDT) Temp. Windchill Dew Point Humidity Pressure Visibility Wind Dir Wind Speed Gust Speed Precip Events Conditions
12:53 AM 17.1 °F - 10.9 °F 77% 30.10 in 10.0 mi Calm Calm - N/A   Clear
1:53 AM 16.0 °F - 12.0 °F 84% 30.07 in 10.0 mi Calm Calm - N/A   Clear
2:53 AM 15.1 °F - 10.9 °F 84% 30.05 in 10.0 mi Calm Calm - N/A   Clear
3:53 AM 15.1 °F 5.2 °F 10.0 °F 80% 30.02 in 10.0 mi SSW 6.9 mph - N/A   Partly Cloudy
4:53 AM 17.1 °F 10.0 °F 10.0 °F 74% 29.99 in 10.0 mi SSW 4.6 mph - N/A   Clear
5:53 AM 17.1 °F 8.7 °F 10.9 °F 77% 29.97 in 10.0 mi SSW 5.8 mph - N/A   Mostly Cloudy
6:53 AM 19.9 °F 12.1 °F 12.9 °F 74% 29.96 in 10.0 mi SSW 5.8 mph - N/A   Overcast
7:40 AM 21.9 °F 14.5 °F 14.0 °F 72% 29.93 in 4.0 mi WSW 5.8 mph - 0.00 in Snow Light Snow
7:47 AM 21.2 °F 10.1 °F 15.8 °F 80% 29.93 in 1.5 mi SW 10.4 mph - 0.00 in Snow Light Snow
7:53 AM 21.9 °F 11.0 °F 15.1 °F 75% 29.96 in 1.8 mi WSW 10.4 mph - 0.00 in Snow Light Snow
7:56 AM 21.9 °F 11.7 °F 15.1 °F 75% 29.92 in 3.0 mi WSW 9.2 mph - 0.00 in Snow Light Snow
8:53 AM 24.1 °F 14.4 °F 18.0 °F 77% 29.96 in 10.0 mi WSW 9.2 mph - 0.00 in   Overcast
9:53 AM 27.0 °F 17.3 °F 19.0 °F 72% 29.95 in 10.0 mi West 10.4 mph - 0.00 in   Overcast
10:53 AM 28.9 °F 18.2 °F 16.0 °F 58% 29.96 in 10.0 mi West 13.8 mph - N/A   Overcast
11:53 AM 28.9 °F 18.2 °F 12.9 °F 51% 29.97 in 10.0 mi WNW 13.8 mph 20.7 mph N/A   Overcast
12:53 PM 30.0 °F 20.0 °F 15.1 °F 54% 29.98 in 10.0 mi WNW 12.7 mph - 0.00 in   Overcast
1:53 PM 30.9 °F 20.2 °F 7.0 °F 37% 29.98 in 10.0 mi WNW 15.0 mph 27.6 mph N/A   Partly Cloudy
2:53 PM 30.9 °F 19.8 °F 14.0 °F 50% 29.98 in 10.0 mi WNW 16.1 mph - N/A   Mostly Cloudy
3:53 PM 28.0 °F 16.5 °F 10.0 °F 47% 29.98 in 10.0 mi WNW 15.0 mph - N/A   Mostly Cloudy
4:53 PM 28.0 °F 15.7 °F 7.0 °F 41% 29.99 in 10.0 mi WNW 17.3 mph 31.1 mph 0.00 in   Overcast
5:53 PM 28.0 °F 15.7 °F 14.0 °F 56% 30.01 in 10.0 mi WNW 17.3 mph 26.5 mph N/A   Mostly Cloudy
6:53 PM 26.1 °F 14.5 °F 14.0 °F 60% 30.05 in 10.0 mi WNW 13.8 mph - N/A   Mostly Cloudy
7:18 PM 23.0 °F 8.7 °F 12.9 °F 65% 30.02 in 2.5 mi NW 18.4 mph 26.5 mph 0.00 in Snow Light Snow
7:24 PM 24.1 °F 11.0 °F 12.0 °F 60% 30.02 in 4.0 mi NW 16.1 mph 25.3 mph 0.00 in Snow Light Snow
7:53 PM 23.0 °F 11.1 °F 9.0 °F 55% 30.07 in 10.0 mi WNW 12.7 mph - 0.00 in   Mostly Cloudy
8:53 PM 21.9 °F 12.5 °F 8.1 °F 55% 30.11 in 10.0 mi WNW 8.1 mph - N/A   Mostly Cloudy
9:53 PM 19.9 °F 9.3 °F 8.1 °F 60% 30.14 in 10.0 mi NW 9.2 mph 24.2 mph N/A   Clear
10:53 PM 19.0 °F 6.1 °F 10.0 °F 68% 30.16 in 10.0 mi NW 12.7 mph - N/A   Mostly Cloudy
11:10 PM 19.0 °F 7.5 °F 12.9 °F 77% 30.13 in 1.8 mi NNW 10.4 mph - 0.00 in Snow Light Snow
11:25 PM 19.0 °F 6.8 °F 12.0 °F 74% 30.14 in 2.5 mi NNW 11.5 mph - 0.00 in Snow Light Snow
11:33 PM 19.0 °F 6.1 °F 12.9 °F 77% 30.14 in 4.0 mi NW 12.7 mph - 0.00 in Snow Light Snow
11:44 PM 19.0 °F 7.5 °F 12.9 °F 77% 30.15 in 2.5 mi NW 10.4 mph 20.7 mph 0.00 in Snow Light Snow
11:53 PM 18.0 °F 5.4 °F 12.9 °F 81% 30.19 in 1.5 mi NW 11.5 mph 18.4 mph 0.00 in Snow Light Snow